Погода в Раахе

Финляндия     64°40′15″N   24°29′22″E
темп.,
°C
ветер,
м/с
пор.,
м/с
влажн.,
%
обл.,
%
осадки,
мм/ч
давл.,
гПа
погр.,
м
16 мая, вс
вс1600:00+10вюв5689100 0.3 100637
03:00+8вюв569627 0.3 100634
06:00+8юв449998 0.5 100630
09:00+3зюз459997 0.6 100787
12:00+3юз579999 0.1 100899
15:00+3зюз569897 0.1 100999
18:00+3зсз119894 0.0 100929
21:00+4зюз119899 0.0 100916
17 мая, пн
пн1700:00+4всв229896 0.0 101010
03:00+5вюв22955 0.0 101110
06:00+6юв229411 0.0 101114
09:00+7всв33887 0.0 101147
12:00+8св448694 0.0 1010149
15:00+11всв3475100 0.1 1009207
18:00+13в6868100 0.0 1007156
21:00+12юв71072100 0.0 100694
18 мая, вт
вт1800:00+10ююв6888100 1.0 100580
03:00+5зюз4610095 8.3 100659
06:00+4юз61110093 0.0 1008148
09:00+4ююз129993 0.1 100930
12:00+6св1196100 0.0 100981
15:00+7ссв4490100 0.0 1008118
18:00+5ссв6896100 0.0 100671
21:00+5св5696100 0.2 100463
19 мая, ср
ср1900:00+5с45100100 2.9 100349
03:00+5с71199100 3.8 1001102
06:00+5ссв61299100 0.9 1000123
09:00+5с711100100 4.8 997127
12:00+4ссз812100100 10.1 997122
15:00+4зсз57100100 11.1 100090
18:00+4з81299100 0.2 1002119
21:00+4зюз799894 0.2 100490
20 мая, чт
чт2000:00+4зюз6892100 0.0 100474
03:00+3юз3392100 0.0 100536
06:00+3юз339398 0.0 100523
09:00+3з2298100 0.0 100438
12:00+4зсз339899 0.1 100456
15:00+4ссз349791 0.1 100485
18:00+5с3498100 0.1 100248
21:00+5ссв469999 0.4 100059